Date String (YYYY-MM-DD hh:mm:ss) UTC,Instrument flags,Ambient pressure (hPa),Sample flow (lpm),Bypass flow (lpm),Sample temperature (°C),Ambient temperature (°C),ASC tube jacket temperature (°C),LED temperature (°C),Box temperature (°C),Sample RH (%),Span deviation,Mass concentration (μg/m³),Mass concentration (μg/m³),Mass concentration (μg/m³)
DateTimeUTC,F1_M11,P_M11,Q1_M11,Q2_M11,T1_M11,T2_M11,T3_M11,T4_M11,T5_M11,U1_M11,ZSPAN_M11,X0_M11,X2_M11,X1_M11
2022-11-04 21:00:00,,0819.3,4.99,0.00,25.3,24.2,00.0,34.0,27.3,13.2,-002.0,0012.80,0008.42,0007.98
2022-11-04 21:01:00,,0819.2,5.00,0.00,25.3,24.2,00.0,34.0,27.3,13.1,-001.5,0012.39,0008.31,0007.86
2022-11-04 21:02:00,,0819.3,5.01,0.00,25.4,24.2,00.0,34.0,27.4,12.6,-001.6,0011.94,0008.18,0007.72
2022-11-04 21:03:00,,0819.3,5.01,0.00,25.4,24.2,00.0,34.0,27.4,12.8,-001.5,0010.97,0008.02,0007.57
2022-11-04 21:04:00,,0819.3,4.98,0.00,25.4,24.2,00.0,34.1,27.4,13.1,-001.2,0011.09,0007.86,0007.45
2022-11-04 21:05:00,,0819.3,5.02,0.00,25.4,24.2,00.0,34.1,27.4,13.5,-001.2,0010.87,0007.74,0007.34
2022-11-04 21:06:00,,0819.3,4.98,0.00,25.4,24.3,00.0,34.1,27.4,13.5,-000.6,0011.24,0007.58,0007.22
2022-11-04 21:07:00,,0819.2,5.01,0.00,25.4,24.3,00.0,34.1,27.4,12.4,-000.7,0011.29,0007.47,0007.12
2022-11-04 21:08:00,,0819.2,5.01,0.00,25.4,24.3,00.0,34.1,27.4,12.8,-000.7,0011.03,0007.44,0007.06
2022-11-04 21:09:00,,0819.2,4.99,0.00,25.5,24.3,00.0,34.1,27.4,13.1,-000.7,0010.97,0007.40,0007.04
2022-11-04 21:10:00,,0819.1,4.99,0.00,25.5,24.3,00.0,34.1,27.4,13.2,-000.5,0010.83,0007.37,0007.02
2022-11-04 21:11:00,,0819.2,5.01,0.00,25.5,24.3,00.0,34.1,27.4,14.3,-000.7,0010.78,0007.40,0007.08
2022-11-04 21:12:00,,0819.2,5.01,0.00,25.5,24.2,00.0,34.2,27.4,15.1,-000.7,0010.88,0007.51,0007.19
2022-11-04 21:13:00,,0819.1,4.99,0.00,25.5,24.2,00.0,34.2,27.4,15.5,-000.9,0011.27,0007.68,0007.33
2022-11-04 21:14:00,,0819.1,4.99,0.00,25.5,24.3,00.0,34.2,27.4,15.0,-000.9,0011.52,0007.87,0007.51
2022-11-04 21:15:00,,0819.1,5.01,0.00,25.5,24.3,00.0,34.2,27.4,14.5,-000.8,0011.51,0008.04,0007.66
2022-11-04 21:16:00,,0819.1,5.00,0.00,25.5,24.3,00.0,34.2,27.4,14.1,-000.5,0011.88,0008.15,0007.77
2022-11-04 21:17:00,,0819.1,4.99,0.00,25.5,24.3,00.0,34.2,27.5,14.5,-000.6,0012.01,0008.25,0007.86
2022-11-04 21:18:00,,0819.1,5.02,0.00,25.5,24.3,00.0,34.2,27.5,14.9,-000.7,0011.87,0008.40,0008.01
2022-11-04 21:19:00,,0819.2,4.99,0.00,25.5,24.3,00.0,34.2,27.5,15.0,-001.0,0012.17,0008.59,0008.22
2022-11-04 21:20:00,,0819.1,4.99,0.00,25.5,24.4,00.0,34.2,27.5,14.8,-001.2,0012.46,0008.73,0008.37
2022-11-04 21:21:00,,0819.1,5.01,0.00,25.6,24.4,00.0,34.2,27.5,15.1,-001.2,0012.59,0008.87,0008.51
2022-11-04 21:22:00,,0819.1,5.00,0.00,25.6,24.4,00.0,34.3,27.5,13.1,-001.2,0012.61,0008.88,0008.52
2022-11-04 21:23:00,,0819.1,4.99,0.00,25.6,24.4,00.0,34.3,27.5,12.1,-001.2,0012.33,0008.60,0008.24
2022-11-04 21:24:00,,0819.2,4.99,0.00,25.6,24.4,00.0,34.3,27.5,13.3,-001.2,0011.99,0008.37,0008.04
2022-11-04 21:25:00,,0819.1,5.00,0.00,25.6,24.4,00.0,34.3,27.6,14.0,-001.0,0011.89,0008.23,0007.93
2022-11-04 21:26:00,,0819.0,5.01,0.00,25.6,24.4,00.0,34.3,27.6,13.3,-000.7,0012.14,0008.10,0007.83
2022-11-04 21:27:00,,0819.2,5.01,0.00,25.6,24.4,00.0,34.3,27.6,12.4,-000.9,0011.53,0007.86,0007.59
2022-11-04 21:28:00,,0819.1,4.99,0.00,25.6,24.5,00.0,34.3,27.6,11.5,-001.1,0010.83,0007.64,0007.39
2022-11-04 21:29:00,,0819.1,5.00,0.00,25.6,24.5,00.0,34.3,27.6,10.3,-001.1,0010.42,0007.20,0006.98
2022-11-04 21:30:00,,0819.1,5.01,0.00,25.6,24.5,00.0,34.3,27.6,13.0,-000.8,0010.01,0006.98,0006.75
2022-11-04 21:31:00,,0819.2,4.99,0.00,25.6,24.5,00.0,34.3,27.6,14.2,-000.3,0009.82,0006.94,0006.70
2022-11-04 21:32:00,,0819.1,5.00,0.00,25.7,24.5,00.0,34.4,27.6,14.4,-000.3,0010.05,0006.94,0006.70
2022-11-04 21:33:00,,0819.1,5.01,0.00,25.7,24.5,00.0,34.4,27.6,13.4,-000.6,0010.24,0006.87,0006.62
2022-11-04 21:34:00,,0819.1,4.98,0.00,25.7,24.5,00.0,34.4,27.6,14.3,-000.9,0010.53,0007.13,0006.85
2022-11-04 21:35:00,,0819.1,5.01,0.00,25.7,24.5,00.0,34.4,27.6,12.8,-000.7,0010.57,0007.22,0006.94
2022-11-04 21:36:00,,0819.1,5.01,0.00,25.7,24.4,00.0,34.4,27.6,11.0,-000.8,0010.22,0006.99,0006.70
2022-11-04 21:37:00,,0819.1,4.98,0.00,25.7,24.4,00.0,34.4,27.6,11.1,-000.8,0009.69,0006.79,0006.49
2022-11-04 21:38:00,,0819.1,5.01,0.00,25.7,24.5,00.0,34.4,27.6,09.6,-000.7,0009.88,0006.64,0006.35
2022-11-04 21:39:00,,0819.1,5.00,0.00,25.7,24.5,00.0,34.4,27.6,09.2,-000.3,0010.00,0006.37,0006.07
2022-11-04 21:40:00,,0819.1,5.00,0.00,25.7,24.4,00.0,34.4,27.6,11.3,-000.1,0010.01,0006.39,0006.06
2022-11-04 21:41:00,,0819.1,4.99,0.00,25.7,24.4,00.0,34.4,27.6,13.6,-000.1,0010.12,0006.49,0006.17
2022-11-04 21:42:00,,0819.1,4.99,0.00,25.7,24.4,00.0,34.4,27.6,13.2,-000.2,0010.21,0006.46,0006.14
2022-11-04 21:43:00,,0819.1,5.01,0.00,25.7,24.5,00.0,34.4,27.6,13.1,-000.8,0009.87,0006.36,0006.04
2022-11-04 21:44:00,,0819.1,5.01,0.00,25.7,24.4,00.0,34.4,27.6,11.8,-000.8,0009.54,0006.27,0005.96
2022-11-04 21:45:00,,0819.1,4.98,0.00,25.7,24.5,00.0,34.4,27.6,12.6,-000.1,0009.28,0006.07,0005.79
2022-11-04 21:46:00,,0819.0,5.01,0.00,25.7,24.5,00.0,34.4,27.6,13.7,0000.0,0009.20,0006.08,0005.81
2022-11-04 21:47:00,,0819.0,5.01,0.00,25.7,24.5,00.0,34.4,27.6,13.5,-000.7,0009.37,0006.29,0006.04
2022-11-04 21:48:00,,0818.9,4.99,0.00,25.7,24.5,00.0,34.4,27.7,12.5,-001.5,0009.51,0006.38,0006.15
2022-11-04 21:49:00,,0819.0,4.99,0.00,25.7,24.5,00.0,34.4,27.7,12.9,-002.1,0009.49,0006.63,0006.38
2022-11-04 21:50:00,,0818.9,5.00,0.00,25.7,24.5,00.0,34.5,27.7,11.8,-002.1,0009.45,0006.96,0006.69
2022-11-04 21:51:00,,0819.0,5.00,0.00,25.7,24.5,00.0,34.5,27.7,11.3,-002.3,0009.65,0007.09,0006.83
2022-11-04 21:52:00,,0818.9,5.01,0.00,25.7,24.5,00.0,34.5,27.7,11.3,-002.4,0009.57,0006.94,0006.67
2022-11-04 21:53:00,,0818.9,5.01,0.00,25.7,24.5,00.0,34.5,27.7,11.9,-002.5,0009.22,0006.72,0006.49
2022-11-04 21:54:00,,0819.0,5.00,0.00,25.7,24.0,00.0,34.5,26.2,10.1,-002.5,0008.95,0006.48,0006.24
2022-11-04 21:55:00,,0818.9,4.98,0.00,25.8,24.5,00.0,34.5,27.7,10.0,-002.2,0008.82,0006.32,0006.08
2022-11-04 21:56:00,,0819.0,5.01,0.00,25.8,24.6,00.0,34.5,27.7,09.2,-002.3,0008.62,0006.12,0005.88
2022-11-04 21:57:00,,0819.0,4.99,0.00,25.8,24.6,00.0,34.5,27.7,09.1,-002.9,0008.27,0005.75,0005.53
2022-11-04 21:58:00,,0818.9,5.00,0.00,25.8,24.6,00.0,34.5,27.8,09.5,-000.3,0008.05,0005.44,0005.20
2022-11-04 21:59:00,,0818.9,5.00,0.00,25.8,24.6,00.0,34.5,27.8,09.9,0000.0,0007.62,0005.20,0004.98
